Miscellaneous Local Product
Issued by NWS Hastings, NE

Home | Current Version | Previous Version | Graphics & Text | Print | Product List | Glossary On
Versions: 1 2 3 4 5 6 7 8 9 10 11 12 13 14 15 16 17 18 19 20 21 22 23 24 25 26 27 28 29 30 31 32 33 34 35 36 37 38 39 40 41 42 43 44 45 46 47 48 49 50
000
AXUS43 KGID 091202
MISGRI

GID CWA HOURLY WEATHER ROUNDUP
NATIONAL WEATHER SERVICE HASTINGS NE
600 AM CST TUE FEB 09 2016

NOTE: "FAIR" INDICATES FEW OR NO CLOUDS BELOW 12,000 FEET WITH NO
SIGNIFICANT WEATHER AND/OR OBSTRUCTIONS TO VISIBILITY.

...SOUTH CENTRAL NEBRASKA...

CITY           SKY/WX    TMP DP  RH WIND       PRES   REMARKS
GRAND ISLAND   MOCLDY    19  12  74 NW9       30.23R WCI   8
HASTINGS       MOCLDY    21  14  74 N13       30.20R WCI   9
ORD            CLOUDY    23  16  74 N15       30.21R WCI  10
YORK           CLEAR     19  10  68 N10       30.20R WCI   8
AURORA         CLEAR     19  12  72 N15       30.20R WCI   5
LEXINGTON      MOCLDY    23  17  78 W6        30.19S WCI  16
HOLDREGE       CLOUDY    24  18  75 NW6       30.19S WCI  17
HEBRON         CLEAR     23  16  73 N9        30.20R WCI  13

...NEBRASKA PANHANDLE...

CITY           SKY/WX    TMP DP  RH WIND       PRES   REMARKS
CHADRON        CLOUDY    29  24  82 CALM      30.24R
ALLIANCE       CLEAR     24  20  84 NW5       30.21R WCI  18
SCOTTSBLUFF    CLEAR     30  23  75 NW10      30.26R WCI  21
SIDNEY         CLEAR     32  24  72 NW17      30.22R WCI  21

...WESTERN AND NORTH CENTRAL NEBRASKA...

CITY           SKY/WX    TMP DP  RH WIND       PRES   REMARKS
VALENTINE      CLOUDY    26  17  68 NW7       30.23R WCI  18
AINSWORTH      CLOUDY    25  19  77 N14       30.22R WCI  13
ONEILL         CLOUDY    21  11  66 N18       30.23R WCI   6
BROKEN BOW     CLOUDY    27  18  69 N18       30.20R WCI  14
IMPERIAL       CLOUDY    31  25  78 N12       30.22R WCI  22
NORTH PLATTE   MOCLDY    23  16  74 NW8       30.21R WCI  14
MCCOOK         CLOUDY    29  18  63 NW12      30.22R WCI  19

...EASTERN NEBRASKA...

CITY           SKY/WX    TMP DP  RH WIND       PRES   REMARKS
NORFOLK        CLEAR     15   6  67 N17       30.19R WCI  -1
SO SIOUX CITY  PTCLDY    13   3  64 NW18G29   30.19R WCI  -4
TEKAMAH        CLEAR     14   5  67 N16       30.19R WCI  -2
COLUMBUS       PTCLDY    18   1  49 NW21      30.20R WCI   1
ALBION         CLOUDY    19  10  67 N13G21    30.19R WCI   6
OMAHA EPPLEY   PTCLDY    14   6  70 N17       30.18R WCI  -3
OFFUTT AFB     CLEAR     15   7  69 N16G28    30.16R WCI   0
MILLARD        PTCLDY    17   8  65 N9G16     30.17R WCI   6
LINCOLN        PTCLDY    20   9  62 N21       30.19R WCI   4
NEBRASKA CITY  CLEAR     19   9  65 N16G25    30.14R WCI   4
BEATRICE       CLEAR     21  11  65 N16       30.17R WCI   7
FALLS CITY     CLEAR     20  10  65 N17G23    30.14R WCI   5

...NORTHERN KANSAS...

CITY           SKY/WX    TMP DP  RH WIND       PRES   REMARKS
GOODLAND       CLOUDY    20  17  88 NW6       30.22R WCI  12
HILL CITY      CLOUDY    31  21  66 W7        30.23R WCI  24
NORTON         SUNNY     28  18  64 NW10      30.20S WCI  19
PHILLIPSBURG   CLOUDY    32  23  69 CALM      30.23R
SMITH CENTER   CLEAR     28  19  69 NW13      30.22R WCI  18
BELOIT         MOCLDY    28  19  69 NW14      30.21S WCI  17
HAYS           MOCLDY    34  16  47 NW9       30.21R WCI  26
RUSSELL        CLOUDY    30  22  72 N8        30.20R WCI  22
CONCORDIA      CLEAR     25  17  72 NW10      30.21R WCI  15
SALINA         MOCLDY    31  18  58 NW13      30.20R WCI  21
TOPEKA         CLEAR     26   9  48 NW22G30   30.14R WCI  12



USA.gov is the U.S. government's official web portal to all federal, state and local government web resources and services.